TimeEDT,TemperatureF,Dew PointF,Humidity,Sea Level PressureIn,VisibilityMPH,Wind Direction,Wind SpeedMPH,Gust SpeedMPH,PrecipitationIn,Events,Conditions,WindDirDegrees,DateUTC
12:14 AM,61.0,57.6,88,29.90,10.0,WSW,3.5,-,N/A,,Clear,240,2013-09-04 04:14:00
12:34 AM,61.7,56.3,82,29.89,10.0,WSW,4.6,-,N/A,,Scattered Clouds,240,2013-09-04 04:34:00
12:55 AM,61.7,55.4,80,29.90,10.0,WSW,5.8,-,N/A,,Clear,250,2013-09-04 04:55:00
1:07 AM,62.1,54.5,76,29.89,10.0,WSW,4.6,-,N/A,,Scattered Clouds,240,2013-09-04 05:07:00
1:34 AM,62.1,54.5,76,29.89,10.0,WSW,3.5,-,N/A,,Clear,250,2013-09-04 05:34:00
1:55 AM,61.9,54.1,76,29.89,10.0,WSW,5.8,-,N/A,,Clear,250,2013-09-04 05:55:00
2:14 AM,62.2,54.1,75,29.89,10.0,West,8.1,-,N/A,,Clear,260,2013-09-04 06:14:00
2:34 AM,62.2,54.0,74,29.88,10.0,West,9.2,-,N/A,,Clear,270,2013-09-04 06:34:00
2:55 AM,62.1,54.0,75,29.88,10.0,WSW,5.8,-,N/A,,Clear,250,2013-09-04 06:55:00
3:14 AM,62.4,54.3,75,29.88,10.0,West,4.6,-,N/A,,Mostly Cloudy,270,2013-09-04 07:14:00
3:34 AM,61.9,54.7,77,29.89,10.0,WNW,6.9,-,N/A,,Mostly Cloudy,290,2013-09-04 07:34:00
3:55 AM,60.4,54.5,81,29.90,10.0,WNW,6.9,-,N/A,,Scattered Clouds,300,2013-09-04 07:55:00
4:14 AM,59.9,54.0,81,29.90,10.0,WNW,6.9,-,N/A,,Clear,290,2013-09-04 08:14:00
4:34 AM,58.6,53.6,83,29.90,10.0,WNW,6.9,-,N/A,,Clear,290,2013-09-04 08:34:00
4:54 AM,57.6,53.6,87,29.91,10.0,WNW,6.9,-,N/A,,Clear,300,2013-09-04 08:54:00
5:14 AM,57.7,54.0,87,29.91,10.0,WNW,6.9,-,N/A,,Clear,300,2013-09-04 09:14:00
5:35 AM,57.2,54.0,89,29.92,10.0,WNW,6.9,-,N/A,,Clear,300,2013-09-04 09:35:00
5:54 AM,57.0,54.1,90,29.93,10.0,NW,5.8,-,N/A,,Clear,310,2013-09-04 09:54:00
6:14 AM,56.5,54.1,92,29.94,10.0,NW,5.8,-,N/A,,Scattered Clouds,320,2013-09-04 10:14:00
6:34 AM,57.2,54.9,92,29.96,10.0,NNW,8.1,-,N/A,,Overcast,330,2013-09-04 10:34:00
6:54 AM,57.9,55.8,92,29.97,10.0,NNW,4.6,-,N/A,,Overcast,330,2013-09-04 10:54:00
7:15 AM,59.0,56.7,92,29.98,10.0,North,8.1,-,N/A,,Overcast,360,2013-09-04 11:15:00
7:34 AM,58.5,55.2,89,30.00,10.0,North,9.2,17.3,N/A,,Overcast,360,2013-09-04 11:34:00
7:54 AM,57.2,52.7,85,30.02,10.0,North,11.5,-,N/A,,Overcast,360,2013-09-04 11:54:00
8:15 AM,56.3,52.7,88,30.02,10.0,North,8.1,-,N/A,,Overcast,360,2013-09-04 12:15:00
8:34 AM,57.2,52.7,85,30.03,10.0,North,10.4,16.1,N/A,,Overcast,360,2013-09-04 12:34:00
8:54 AM,56.7,52.0,84,30.04,10.0,North,10.4,-,N/A,,Overcast,350,2013-09-04 12:54:00
9:15 AM,56.5,50.5,80,30.05,10.0,North,11.5,-,N/A,,Mostly Cloudy,350,2013-09-04 13:15:00
9:34 AM,57.6,48.9,73,30.06,10.0,North,11.5,16.1,N/A,,Mostly Cloudy,360,2013-09-04 13:34:00
9:54 AM,59.2,49.3,70,30.06,10.0,North,11.5,-,N/A,,Mostly Cloudy,350,2013-09-04 13:54:00
10:14 AM,60.1,49.6,68,30.07,10.0,North,10.4,-,N/A,,Scattered Clouds,10,2013-09-04 14:14:00
10:34 AM,60.1,49.8,69,30.07,10.0,NNW,9.2,-,N/A,,Scattered Clouds,330,2013-09-04 14:34:00
10:55 AM,60.8,50.2,68,30.07,10.0,North,13.8,-,N/A,,Clear,350,2013-09-04 14:55:00
11:14 AM,61.7,49.5,64,30.08,10.0,North,11.5,17.3,N/A,,Clear,360,2013-09-04 15:14:00
11:34 AM,62.8,50.0,63,30.08,10.0,North,5.8,-,N/A,,Clear,350,2013-09-04 15:34:00
11:55 AM,63.0,49.8,62,30.09,10.0,NW,15.0,18.4,N/A,,Clear,320,2013-09-04 15:55:00
12:14 PM,63.5,47.5,56,30.09,10.0,North,15.0,19.6,N/A,,Clear,10,2013-09-04 16:14:00
12:34 PM,63.7,46.9,54,30.09,10.0,North,10.4,-,N/A,,Clear,350,2013-09-04 16:34:00
12:55 PM,64.0,47.1,54,30.09,10.0,North,13.8,19.6,N/A,,Clear,360,2013-09-04 16:55:00
1:14 PM,64.4,46.4,52,30.10,10.0,North,10.4,17.3,N/A,,Clear,350,2013-09-04 17:14:00
1:35 PM,64.2,46.0,52,30.09,10.0,North,12.7,20.7,N/A,,Clear,350,2013-09-04 17:35:00
1:54 PM,64.6,45.9,51,30.09,10.0,North,9.2,18.4,N/A,,Clear,350,2013-09-04 17:54:00
2:14 PM,65.8,45.5,48,30.09,10.0,NNW,11.5,20.7,N/A,,Clear,330,2013-09-04 18:14:00
2:35 PM,65.1,44.6,47,30.09,10.0,North,11.5,21.9,N/A,,Clear,350,2013-09-04 18:35:00
2:42 PM,64.9,44.1,47,30.09,10.0,North,12.7,17.3,N/A,,Clear,350,2013-09-04 18:42:00
6:18 PM,59.2,43.3,56,30.11,10.0,North,9.2,-,N/A,,Clear,350,2013-09-04 22:18:00
6:35 PM,58.8,43.0,56,30.11,10.0,NNW,9.2,16.1,N/A,,Clear,340,2013-09-04 22:35:00
6:54 PM,58.1,43.7,59,30.12,10.0,NNW,8.1,-,N/A,,Clear,340,2013-09-04 22:54:00
7:14 PM,57.0,43.9,61,30.11,10.0,North,6.9,-,N/A,,Clear,350,2013-09-04 23:14:00
7:35 PM,55.8,43.0,62,30.12,10.0,North,9.2,-,N/A,,Clear,350,2013-09-04 23:35:00
7:54 PM,54.5,41.5,62,30.12,10.0,North,9.2,-,N/A,,Clear,350,2013-09-04 23:54:00
8:15 PM,52.7,41.9,67,30.13,10.0,North,4.6,-,N/A,,Clear,350,2013-09-05 00:15:00
8:34 PM,51.1,41.4,69,30.13,10.0,North,6.9,-,N/A,,Clear,350,2013-09-05 00:34:00
8:54 PM,50.2,41.2,71,30.14,10.0,NNW,5.8,-,N/A,,Clear,340,2013-09-05 00:54:00
9:15 PM,48.4,41.4,77,30.14,10.0,NNW,4.6,-,N/A,,Clear,330,2013-09-05 01:15:00
9:34 PM,47.5,41.4,79,30.15,10.0,NNW,5.8,-,N/A,,Clear,340,2013-09-05 01:34:00
9:54 PM,47.7,42.1,81,30.16,10.0,North,6.9,-,N/A,,Clear,350,2013-09-05 01:54:00
10:15 PM,47.5,42.1,82,30.16,10.0,NNW,5.8,-,N/A,,Clear,340,2013-09-05 02:15:00
10:34 PM,46.8,41.9,83,30.17,10.0,NNW,5.8,-,N/A,,Clear,340,2013-09-05 02:34:00
10:55 PM,46.4,41.9,84,30.17,10.0,NNW,6.9,-,N/A,,Clear,330,2013-09-05 02:55:00
11:14 PM,46.6,41.9,84,30.18,10.0,NNW,5.8,-,N/A,,Clear,330,2013-09-05 03:14:00
11:34 PM,45.5,41.9,87,30.18,10.0,NNW,4.6,-,N/A,,Clear,330,2013-09-05 03:34:00
11:55 PM,44.6,41.4,88,30.18,10.0,NW,3.5,-,N/A,,Clear,320,2013-09-05 03:55:00